Temp
-10 -10 -10 -11 -12 -12 -13 -12 -11 -11 -11 -12 -12 -12 -12 -12 -13 -12 -13 -13 -13 -13 -14 -14 -14 -15 -15 -15 -15 -15 -15 -16 -16 -16 -16 -17 -17 -18 -18 -18 -18 -18 -19
-10 -10 -10 -10 -11 -11 -12 -12 -12 -12 -12 -12 -12 -12 -13 -13 -13 -13 -13 -13 -13 -13 -14 -14 -15 -15 -15 -15 -15 -15 -15 -16 -16 -16 -16 -17 -17 -18 -18 -18 -18 -19 -19
-11 -11 -10 -11 -11 -11 -11 -11 -11 -11 -12 -12 -12 -12 -13 -13 -13 -13 -13 -13 -13 -14 -14 -15 -15 -15 -15 -15 -14 -16 -15 -16 -15 -16 -16 -16 -17 -17 -18 -18 -19 -19 -19
-11 -11 -11 -11 -11 -11 -11 -11 -11 -11 -11 -11 -12 -12 -12 -12 -12 -13 -13 -14 -14 -14 -14 -15 -15 -15 -15 -16 -16 -16 -16 -15 -16 -17 -16 -17 -18 -18 -18 -18 -19 -19 -20
-11 -11 -11 -11 -11 -11 -11 -11 -11 -11 -12 -12 -12 -12 -12 -12 -12 -13 -14 -14 -14 -14 -15 -15 -15 -15 -16 -16 -17 -17 -18 -17 -17 -17 -16 -18 -18 -18 -18 -18 -19 -20 -20
-11 -11 -11 -11 -11 -11 -11 -11 -12 -12 -12 -12 -12 -12 -12 -13 -13 -14 -14 -14 -14 -15 -15 -15 -16 -16 -16 -17 -17 -18 -18 -18 -17 -17 -18 -19 -18 -18 -19 -19 -20 -20 -20
-12 -12 -12 -12 -12 -12 -12 -12 -13 -13 -13 -13 -13 -13 -14 -14 -14 -14 -14 -15 -15 -15 -15 -16 -16 -17 -17 -17 -18 -18 -19 -19 -19 -19 -18 -19 -19 -19 -18 -19 -20 -20 -20
-14 -13 -13 -13 -13 -13 -13 -13 -13 -13 -13 -14 -14 -14 -14 -14 -15 -15 -15 -15 -15 -16 -16 -16 -16 -17 -17 -18 -18 -18 -18 -18 -19 -19 -19 -19 -19 -19 -20 -20 -20 -20 -20
-15 -14 -14 -14 -14 -14 -14 -14 -14 -14 -14 -14 -14 -15 -15 -15 -15 -15 -16 -16 -16 -16 -17 -17 -18 -18 -18 -18 -18 -18 -18 -19 -19 -19 -19 -19 -19 -19 -20 -20 -20 -20 -20
-15 -14 -14 -14 -14 -14 -14 -14 -14 -15 -15 -15 -15 -15 -15 -15 -16 -16 -16 -17 -17 -17 -17 -17 -17 -17 -17 -18 -18 -18 -18 -18 -18 -18 -19 -19 -19 -19 -19 -20 -20 -20 -20
-15 -15 -15 -15 -15 -15 -15 -15 -15 -15 -15 -15 -16 -16 -16 -16 -17 -17 -17 -17 -17 -17 -17 -17 -18 -17 -17 -17 -17 -17 -18 -18 -18 -18 -18 -19 -19 -19 -19 -19 -19 -20 -20
-16 -16 -16 -16 -15 -15 -15 -16 -16 -16 -16 -16 -16 -16 -17 -17 -17 -17 -17 -17 -17 -17 -17 -17 -17 -17 -17 -17 -18 -18 -18 -18 -18 -18 -18 -18 -18 -19 -19 -20 -20 -20 -21
-17 -16 -16 -16 -16 -16 -16 -16 -16 -16 -17 -17 -17 -17 -17 -17 -17 -17 -17 -17 -17 -17 -17 -17 -17 -17 -18 -18 -18 -18 -18 -18 -19 -19 -19 -20 -20 -20 -20 -20 -21 -22 -22
-17 -17 -17 -17 -17 -17 -17 -17 -17 -17 -17 -17 -17 -17 -17 -17 -17 -17 -17 -17 -17 -18 -18 -18 -18 -18 -19 -19 -19 -19 -19 -19 -20 -20 -20 -20 -21 -21 -21 -22 -22 -22 -22
-17 -17 -17 -17 -17 -17 -17 -17 -17 -17 -17 -17 -17 -17 -17 -17 -17 -18 -18 -18 -18 -19 -18 -19 -19 -19 -19 -20 -20 -20 -20 -20 -20 -21 -21 -21 -21 -21 -22 -22 -22 -23 -23
-18 -18 -18 -18 -17 -17 -17 -17 -17 -17 -17 -17 -17 -17 -17 -18 -18 -18 -19 -19 -19 -19 -19 -19 -20 -19 -20 -20 -20 -21 -21 -21 -21 -22 -22 -22 -22 -23 -23 -23 -24 -24 -24
-18 -18 -18 -18 -17 -17 -17 -17 -17 -17 -17 -18 -18 -18 -18 -18 -18 -19 -19 -19 -19 -19 -19 -20 -20 -20 -20 -21 -21 -21 -21 -22 -22 -22 -23 -23 -23 -23 -24 -24 -24 -24 -24
-18 -18 -18 -18 -18 -18 -18 -18 -18 -18 -18 -18 -18 -18 -19 -19 -19 -19 -20 -20 -20 -20 -20 -20 -21 -21 -21 -21 -22 -22 -22 -23 -23 -23 -23 -23 -24 -24 -24 -24 -25 -25 -25
-19 -19 -19 -19 -19 -19 -19 -19 -19 -19 -19 -19 -19 -19 -19 -20 -20 -20 -20 -20 -21 -21 -21 -21 -22 -22 -22 -22 -22 -23 -23 -23 -23 -23 -24 -24 -24 -24 -25 -25 -25 -25 -26
-19 -19 -19 -19 -19 -19 -20 -20 -19 -19 -19 -20 -20 -20 -20 -20 -21 -21 -21 -21 -22 -22 -22 -22 -23 -23 -23 -23 -23 -23 -23 -23 -24 -24 -24 -24 -25 -25 -25 -25 -26 -26 -27
-20 -20 -20 -20 -20 -20 -20 -20 -20 -20 -20 -20 -20 -21 -21 -21 -22 -22 -22 -22 -22 -23 -23 -23 -23 -23 -23 -23 -24 -24 -24 -24 -24 -24 -25 -25 -26 -26 -26 -27 -27 -28 -28
-20 -20 -20 -20 -20 -20 -20 -20 -21 -21 -21 -21 -21 -21 -22 -22 -22 -22 -23 -23 -23 -23 -23 -23 -23 -24 -23 -24 -24 -24 -25 -25 -26 -26 -26 -26 -26 -27 -27 -28 -29 -29 -30
-21 -21 -21 -21 -21 -21 -21 -21 -21 -21 -21 -22 -22 -22 -22 -22 -23 -23 -23 -23 -23 -24 -24 -24 -24 -24 -24 -24 -25 -25 -26 -26 -26 -26 -26 -27 -28 -28 -29 -30 -31 -31 -32
-22 -22 -21 -21 -21 -21 -22 -22 -22 -22 -22 -22 -22 -23 -23 -23 -24 -24 -24 -24 -24 -24 -24 -25 -25 -25 -25 -25 -26 -26 -26 -26 -27 -27 -28 -29 -29 -30 -31 -32 -33 -34 -34
-22 -22 -22 -23 -23 -23 -23 -23 -23 -23 -23 -23 -24 -24 -24 -24 -24 -24 -25 -25 -25 -25 -25 -25 -26 -26 -26 -27 -27 -27 -27 -28 -29 -30 -30 -30 -31 -33 -34 -34 -35 -36 -36
-23 -23 -23 -23 -23 -24 -24 -24 -24 -24 -24 -25 -25 -25 -25 -25 -25 -25 -26 -26 -26 -27 -27 -27 -27 -27 -27 -28 -28 -29 -30 -31 -31 -32 -33 -33 -34 -35 -35 -36 -37 -37 -37
Height
5784 5783 5781 5783 5785 5783 5785 5787 5787 5786 5784 5783 5781 5779 5777 5774 5771 5768 5767 5763 5760 5758 5754 5751 5747 5742 5737 5733 5728 5723 5717 5711 5703 5700 5695 5687 5684 5677 5671 5665 5660 5654 5650
5776 5776 5776 5775 5775 5776 5776 5776 5775 5776 5774 5773 5770 5768 5767 5764 5761 5758 5755 5752 5748 5746 5742 5738 5735 5730 5726 5721 5717 5711 5707 5701 5690 5684 5681 5677 5669 5663 5658 5654 5649 5644 5639
5768 5769 5768 5768 5768 5768 5768 5767 5766 5765 5764 5762 5760 5758 5756 5753 5749 5746 5743 5740 5736 5733 5730 5727 5724 5719 5715 5711 5707 5702 5697 5688 5679 5676 5672 5666 5660 5652 5648 5643 5638 5635 5629
5758 5758 5759 5759 5759 5759 5758 5758 5757 5755 5753 5751 5749 5746 5744 5740 5738 5735 5731 5728 5725 5722 5717 5714 5710 5706 5702 5698 5695 5689 5685 5681 5676 5671 5664 5657 5647 5643 5640 5634 5627 5624 5620
5745 5746 5747 5748 5748 5748 5748 5747 5745 5743 5741 5739 5737 5734 5732 5729 5725 5722 5719 5716 5713 5709 5706 5701 5697 5693 5688 5684 5679 5676 5671 5665 5660 5654 5649 5646 5639 5636 5629 5623 5620 5611 5608
5732 5734 5735 5735 5736 5736 5735 5734 5732 5730 5728 5726 5725 5722 5719 5716 5713 5710 5707 5703 5700 5696 5692 5687 5683 5679 5674 5670 5666 5662 5658 5653 5648 5643 5638 5634 5629 5623 5618 5613 5606 5600 5596
5719 5720 5722 5723 5723 5722 5720 5719 5718 5716 5714 5712 5710 5707 5704 5702 5699 5696 5692 5690 5686 5683 5679 5674 5670 5665 5661 5655 5651 5646 5643 5639 5635 5630 5626 5621 5616 5612 5604 5601 5592 5588 5587
5705 5706 5707 5708 5708 5708 5707 5706 5704 5702 5701 5698 5696 5693 5690 5688 5685 5682 5678 5675 5671 5667 5663 5660 5656 5649 5646 5641 5637 5632 5628 5623 5620 5618 5614 5608 5605 5601 5595 5589 5583 5578 5574
5692 5693 5693 5693 5694 5693 5692 5691 5690 5688 5686 5684 5682 5679 5677 5674 5671 5667 5663 5660 5656 5652 5649 5645 5642 5637 5634 5629 5624 5620 5614 5610 5605 5604 5600 5595 5591 5587 5583 5578 5573 5566 5561
5678 5678 5678 5678 5678 5678 5678 5676 5675 5674 5671 5669 5667 5665 5662 5659 5656 5652 5648 5645 5644 5640 5636 5632 5628 5625 5621 5617 5612 5608 5604 5599 5595 5593 5589 5585 5580 5576 5570 5565 5559 5553 5547
5664 5665 5665 5665 5665 5664 5663 5662 5661 5659 5657 5654 5652 5650 5647 5645 5642 5638 5635 5633 5630 5628 5625 5622 5619 5616 5612 5608 5603 5599 5594 5589 5586 5581 5577 5574 5569 5564 5559 5552 5546 5540 5534
5651 5652 5652 5653 5652 5652 5651 5649 5647 5646 5644 5642 5639 5637 5635 5632 5629 5626 5624 5622 5620 5618 5614 5611 5608 5605 5600 5596 5592 5587 5583 5578 5574 5569 5565 5560 5555 5550 5545 5539 5534 5528 5522
5640 5640 5640 5640 5639 5638 5638 5636 5635 5633 5631 5629 5627 5626 5624 5622 5619 5617 5614 5612 5609 5606 5602 5599 5596 5593 5588 5584 5580 5576 5572 5567 5562 5557 5552 5547 5543 5537 5531 5526 5519 5514 5509
5630 5629 5629 5628 5627 5626 5625 5624 5622 5620 5619 5618 5616 5614 5612 5610 5608 5606 5604 5600 5597 5594 5591 5587 5583 5580 5577 5573 5568 5563 5558 5554 5549 5543 5538 5533 5527 5521 5515 5510 5505 5499 5494
5617 5617 5617 5617 5616 5615 5614 5612 5611 5610 5609 5608 5606 5605 5604 5602 5599 5596 5592 5589 5585 5582 5578 5575 5571 5567 5563 5558 5554 5549 5544 5540 5535 5529 5523 5516 5510 5505 5499 5494 5488 5482 5477
5605 5605 5605 5604 5603 5602 5602 5602 5602 5601 5600 5598 5597 5595 5592 5589 5586 5583 5580 5576 5573 5569 5565 5561 5557 5553 5547 5543 5538 5533 5528 5522 5517 5511 5506 5500 5494 5488 5482 5475 5469 5464 5459
5594 5594 5594 5593 5591 5590 5590 5590 5589 5588 5586 5585 5583 5581 5578 5575 5572 5569 5565 5561 5557 5553 5549 5545 5541 5536 5531 5526 5521 5516 5510 5505 5499 5493 5488 5482 5476 5470 5464 5458 5451 5444 5437
5581 5580 5579 5579 5579 5579 5578 5578 5576 5575 5573 5571 5569 5566 5564 5560 5556 5552 5549 5545 5541 5537 5532 5528 5524 5519 5514 5508 5503 5497 5490 5485 5479 5474 5468 5462 5456 5450 5443 5436 5430 5423 5415
5566 5565 5565 5565 5566 5566 5564 5563 5561 5559 5556 5553 5550 5547 5544 5541 5539 5535 5531 5526 5522 5517 5513 5507 5503 5498 5494 5488 5483 5477 5472 5465 5459 5453 5447 5440 5433 5426 5420 5413 5406 5398 5390
5551 5551 5552 5552 5551 5551 5550 5547 5544 5541 5538 5535 5532 5529 5525 5522 5518 5514 5511 5507 5502 5498 5493 5488 5483 5478 5473 5468 5462 5455 5450 5444 5437 5431 5424 5416 5409 5402 5394 5387 5379 5372 5365
5538 5538 5537 5536 5536 5534 5531 5528 5525 5522 5518 5514 5512 5509 5505 5502 5498 5494 5489 5484 5480 5476 5471 5466 5460 5455 5449 5443 5438 5432 5426 5419 5411 5405 5398 5391 5384 5376 5367 5360 5354 5346 5340
5523 5522 5521 5519 5517 5513 5510 5507 5504 5501 5498 5495 5491 5488 5484 5480 5476 5472 5468 5464 5459 5455 5450 5444 5438 5431 5426 5419 5412 5406 5398 5391 5384 5378 5371 5364 5355 5347 5339 5333 5326 5320 5312
5506 5504 5502 5499 5496 5493 5489 5486 5483 5479 5476 5473 5469 5465 5461 5457 5453 5449 5444 5438 5434 5429 5423 5417 5412 5404 5398 5391 5384 5379 5372 5365 5358 5350 5342 5335 5327 5319 5312 5306 5299 5293 5288
5485 5482 5480 5477 5474 5471 5468 5464 5460 5457 5454 5450 5446 5441 5437 5432 5427 5423 5418 5413 5407 5401 5395 5389 5381 5375 5368 5361 5355 5349 5343 5336 5329 5321 5314 5308 5301 5293 5287 5281 5275 5270 5266
5464 5461 5458 5454 5450 5447 5444 5440 5437 5433 5429 5425 5420 5416 5411 5406 5401 5396 5391 5386 5378 5372 5364 5358 5352 5345 5339 5332 5326 5320 5313 5305 5299 5293 5288 5283 5276 5269 5265 5261 5256 5253 5250
5442 5439 5435 5431 5427 5423 5419 5415 5411 5407 5403 5399 5394 5389 5385 5379 5372 5367 5361 5354 5349 5343 5337 5330 5324 5318 5311 5304 5299 5292 5285 5278 5272 5268 5263 5258 5253 5249 5246 5243 5241 5239 5237
Wind_Speed
34 33 34 37 39 35 28 28 34 39 44 47 48 50 52 53 54 56 56 58 60 60 61 60 60 59 61 64 66 64 65 58 60 57 57 47 57 62 61 57 60 55 58
39 34 33 33 35 38 41 43 44 43 43 44 47 49 49 51 51 52 52 54 57 58 59 58 57 61 62 63 65 65 60 60 62 58 61 58 57 64 61 65 62 65 61
44 42 39 38 39 41 43 44 45 46 47 48 48 49 49 49 50 52 52 53 55 55 57 58 60 61 63 63 53 62 59 57 65 57 65 63 62 62 64 65 60 57 51
41 42 44 43 43 44 46 48 49 50 52 53 52 53 51 51 51 51 52 53 54 55 58 60 61 62 62 61 57 57 51 54 61 60 65 66 60 58 60 66 57 55 55
46 46 47 47 48 49 49 51 53 54 55 55 55 55 55 56 56 55 54 54 55 57 58 61 62 62 59 59 57 57 57 57 56 53 67 56 58 60 63 61 53 48 47
46 47 48 49 50 50 52 54 56 58 56 55 55 56 57 56 55 54 55 54 56 58 60 61 62 62 60 58 57 57 58 57 56 57 57 55 57 56 60 48 53 50 44
48 49 51 52 52 52 54 58 56 54 54 55 55 54 53 53 54 55 56 57 59 61 62 61 60 58 58 56 56 55 57 58 59 58 58 58 54 59 60 58 61 55 49
46 47 48 50 52 54 56 56 54 54 53 52 52 52 53 54 55 57 58 59 59 58 56 55 55 52 52 53 53 52 54 53 55 56 52 48 53 64 64 53 56 55 51
44 45 45 47 49 50 51 50 49 50 51 51 52 53 54 55 55 57 56 52 51 49 48 46 43 43 43 43 45 46 45 47 47 42 42 52 51 52 57 59 62 63 61
47 47 51 54 55 52 51 51 51 51 51 52 53 53 53 52 49 48 48 48 48 47 42 40 38 38 38 39 41 42 44 45 43 47 53 49 54 58 60 61 65 64 60
48 50 51 52 51 52 51 51 52 52 52 49 45 45 44 43 44 43 42 40 40 38 37 36 33 30 29 32 33 35 37 38 40 45 49 52 54 56 59 60 62 63 65
48 49 49 50 50 49 50 50 47 45 44 44 43 42 43 44 42 41 39 37 35 31 29 30 30 30 31 31 30 31 33 35 37 41 44 48 51 55 59 62 65 67 66
46 47 47 48 49 47 46 45 43 43 42 42 41 41 40 38 39 41 38 33 31 31 32 32 33 36 37 38 41 42 42 45 47 48 50 54 57 60 63 65 64 64 65
45 46 45 44 43 41 40 40 39 39 39 40 40 39 38 39 38 37 36 35 36 39 41 40 42 43 43 45 48 50 50 50 52 54 56 59 61 63 65 65 67 69 70
43 43 41 38 35 35 36 37 39 40 40 40 39 38 39 40 41 42 42 43 44 44 46 46 47 48 50 51 52 53 54 56 58 60 62 63 65 67 66 68 69 69 68
40 38 37 33 31 31 32 34 35 36 37 39 41 42 45 47 47 47 47 47 47 48 50 51 52 53 53 54 55 57 58 60 62 63 65 66 66 67 69 69 71 72 72
38 37 36 35 34 35 37 40 43 44 44 45 46 47 49 50 51 50 50 52 53 54 55 56 58 59 60 60 61 62 64 66 67 69 69 70 71 72 73 74 74 75 76
39 39 39 41 42 44 46 48 49 48 49 51 53 53 54 55 55 56 56 57 58 59 60 61 62 64 66 67 68 69 69 70 71 72 73 75 77 78 79 80 79 80 81
41 40 42 46 47 48 49 50 52 53 54 55 55 57 59 60 61 62 63 63 64 63 64 66 67 69 71 72 74 75 77 77 77 78 79 80 82 82 81 81 83 84 85
44 46 49 51 52 52 54 55 56 57 58 59 60 62 64 65 65 66 68 69 68 68 69 69 70 72 73 76 78 79 81 81 83 84 85 85 84 84 85 86 87 86 85
49 51 52 54 57 60 62 61 60 61 62 63 65 66 68 70 71 71 71 72 73 73 73 74 75 78 79 81 82 84 87 88 88 87 87 86 87 87 88 88 87 86 84
55 57 59 60 62 63 64 64 65 66 67 69 70 72 73 74 75 76 76 77 77 79 82 83 85 85 87 87 90 89 87 86 86 87 88 90 91 91 91 89 85 83 79
59 60 62 63 65 67 68 69 71 72 74 75 77 78 79 81 81 82 81 83 85 87 89 91 93 92 92 92 91 90 90 91 92 93 95 95 93 90 85 80 77 74 74
62 65 67 69 71 73 74 75 76 79 81 82 83 83 85 87 88 90 91 93 96 96 96 95 94 95 94 94 93 94 95 96 97 97 95 93 89 83 76 70 67 66 65
68 71 73 74 76 78 79 81 82 84 86 88 90 92 93 94 96 99 100 98 94 93 94 95 93 93 93 94 96 97 98 98 95 91 87 83 77 69 62 61 56 52 47
75 77 80 82 84 86 88 90 92 94 95 96 97 99 101 100 96 96 96 94 94 94 94 95 96 98 98 98 97 96 93 89 84 79 72 66 61 56 53 48 44 41 40
Wind_Direction
258 259 255 250 253 260 258 257 255 258 263 268 272 275 278 282 285 286 287 288 289 291 293 296 297 298 301 304 303 307 309 304 304 302 311 300 302 307 313 307 301 309 307
252 253 253 249 242 244 249 255 260 267 272 276 276 277 280 284 288 290 290 291 291 292 292 294 297 300 302 303 304 306 305 302 307 296 315 288 296 312 306 314 308 307 308
253 255 253 251 252 253 257 261 264 268 271 275 278 280 283 285 287 288 289 288 289 290 292 295 298 300 301 300 297 303 304 300 290 280 304 296 295 311 304 313 305 307 306
253 255 256 256 258 259 262 265 270 273 275 275 278 282 285 284 286 287 287 288 290 291 293 294 295 296 294 295 293 294 297 288 294 288 299 293 299 307 307 301 303 318 315
252 253 254 255 257 260 264 266 267 269 271 275 279 283 285 285 285 287 288 289 291 292 292 293 293 292 290 288 289 292 292 290 290 304 277 307 304 299 302 301 303 320 312
254 254 254 256 259 262 265 269 272 274 278 282 286 289 287 287 288 290 292 293 292 291 291 290 291 291 293 292 290 290 291 296 298 296 298 295 297 294 298 294 312 322 309
251 253 256 259 263 267 273 277 280 280 282 283 284 285 287 288 288 288 287 287 288 288 289 291 293 294 294 293 291 290 289 288 290 292 287 296 300 298 297 299 310 313 311
256 260 263 266 269 274 277 278 277 277 279 280 281 282 281 281 282 284 284 285 287 291 294 293 293 292 291 292 293 294 292 290 290 289 289 290 298 295 295 304 308 308 305
259 262 265 269 270 270 271 271 272 273 273 274 276 278 280 282 284 285 287 289 291 289 291 297 299 300 300 301 302 298 301 297 298 292 295 299 289 287 295 299 304 300 300
260 262 265 267 269 268 268 268 270 272 273 275 278 281 284 287 288 290 290 292 294 299 303 304 304 303 303 306 309 309 310 310 303 290 299 292 294 296 298 298 300 303 304
257 259 260 262 262 264 267 271 272 275 277 279 282 285 284 285 287 290 294 298 298 298 299 299 301 302 306 308 309 309 309 311 311 309 305 303 302 302 301 300 299 298 300
258 260 260 263 266 268 270 272 273 276 279 281 281 282 284 287 290 291 290 290 293 292 292 291 292 291 296 299 298 302 300 295 299 297 297 296 295 295 294 296 297 300 302
259 262 265 267 268 269 272 273 274 275 278 281 284 286 286 286 285 284 283 281 278 279 282 285 290 293 292 293 292 291 293 293 294 295 295 295 296 296 296 296 297 298 300
260 262 264 265 266 267 269 272 274 277 277 277 276 275 275 275 273 271 272 274 278 282 283 285 287 291 294 292 292 290 291 290 290 293 295 296 295 295 297 300 300 301 303
257 258 259 258 261 266 269 272 274 275 276 275 273 275 276 276 276 277 277 280 282 285 285 288 290 289 290 289 290 291 292 293 294 293 292 292 293 295 297 297 299 300 300
252 251 252 255 260 267 272 275 277 280 280 279 278 277 278 279 279 280 281 284 285 287 291 290 291 293 293 293 292 291 290 291 291 290 291 293 294 296 298 299 299 299 299
251 253 256 260 265 265 267 273 274 274 276 277 278 280 280 281 282 283 285 286 287 288 290 292 292 292 292 291 291 291 292 292 292 294 296 297 298 299 299 299 298 298 298
256 258 262 266 268 269 270 272 274 276 279 281 282 283 285 285 284 284 286 288 289 290 290 291 291 291 291 291 292 292 294 295 296 297 297 297 298 298 299 299 298 297 297
265 270 272 272 273 275 277 278 280 280 281 284 285 286 288 289 289 289 290 291 291 291 291 292 293 294 294 294 295 296 297 297 297 297 296 296 296 297 297 298 297 297 296
269 271 272 273 274 277 281 282 281 281 283 284 285 286 287 287 288 290 291 292 291 292 292 293 294 296 298 297 297 296 296 295 296 296 296 296 296 297 297 296 295 294 293
273 272 271 272 275 278 280 281 281 282 282 283 286 288 288 289 290 290 290 290 290 291 292 293 293 295 297 297 298 297 297 296 295 295 296 297 296 296 296 295 294 294 295
272 274 276 277 278 278 279 280 281 283 285 286 287 289 290 291 291 291 292 291 291 292 293 294 295 296 297 298 299 298 296 295 295 296 297 297 296 295 295 295 296 295 293
275 276 278 278 279 280 282 283 284 285 286 288 289 289 290 291 291 291 290 290 291 292 294 295 296 297 298 298 298 298 298 298 297 297 296 295 294 296 298 296 294 292 289
276 277 279 281 282 284 285 286 287 288 288 288 289 289 290 291 292 292 293 293 293 294 295 296 296 297 297 297 297 297 297 296 295 294 294 295 297 297 296 292 288 288 289
277 279 281 283 284 286 287 288 287 288 288 288 289 289 290 290 290 292 292 293 293 294 294 295 295 295 295 295 295 294 294 293 294 296 297 297 297 295 291 288 288 291 293
278 280 281 283 284 285 285 285 286 286 286 287 288 289 290 291 291 291 291 292 293 293 293 293 294 293 293 292 292 293 293 295 296 296 294 295 293 291 289 287 287 288 290